Probability
0 0 0 0 0 0 0 0 0 0 0 0 0 0 0 0 0 0 0 0 0 0 0 0 0 0 0 0 0 0 0 0 0 0 0 0 0 0 0 0 0 0 0
0 0 0 0 0 0 0 0 0 0 0 0 0 0 0 0 0 0 0 0 0 0 0 0 0 0 0 0 0 0 0 0 0 0 0 0 0 0 0 0 0 0 0
0 0 0 0 0 0 0 0 0 0 0 0 0 0 0 0 0 0 0 0 0 0 0 0 0 0 0 0 0 0 0 0 0 0 0 0 0 0 0 0 0 0 0
0 0 0 0 0 0 0 0 0 0 0 0 0 0 0 0 0 0 0 0 0 0 0 0 0 0 0 0 0 0 0 0 0 0 0 0 0 0 0 0 0 0 0
0 0 0 0 0 0 0 0 0 0 0 0 0 0 0 0 0 0 0 0 0 0 0 0 0 0 0 0 0 0 0 0 0 0 0 0 0 0 0 0 0 0 0
0 0 0 0 0 0 0 0 0 0 0 0 0 0 0 0 0 0 0 0 0 0 0 0 0 0 0 0 0 0 0 0 0 0 0 0 0 0 0 0 0 0 0
0 0 0 0 0 0 0 0 0 0 0 0 0 0 0 0 0 0 0 0 0 0 0 0 0 0 0 0 0 0 0 0 0 0 0 0 0 0 0 0 0 0 0
0 0 0 0 0 0 0 0 0 0 0 0 0 0 0 0 0 0 0 0 0 0 0 0 0 0 0 0 0 0 0 0 0 0 0 0 0 0 0 0 0 0 0
0 0 0 0 0 0 0 0 0 0 0 0 0 0 0 0 0 0 0 0 0 0 0 0 0 0 0 0 0 0 0 0 0 0 0 0 0 0 0 0 0 0 0
0 0 0 0 0 0 0 0 0 0 0 0 0 0 0 0 0 0 0 0 0 0 0 0 0 0 0 0 0 0 0 0 0 0 0 0 0 0 0 0 0 0 0
0 0 0 0 0 0 0 0 0 0 0 0 0 0 0 0 0 0 0 0 0 0 0 0 0 0 0 0 0 0 0 0 0 0 0 0 0 0 0 0 0 0 0
0 0 0 0 0 0 0 0 0 0 0 0 0 0 0 0 0 0 0 0 0 0 0 0 0 0 0 0 0 0 0 0 0 0 0 0 0 0 0 0 0 0 0
0 0 0 0 0 0 0 0 0 0 0 0 0 0 0 0 0 0 0 0 0 0 0 0 0 0 0 0 0 0 0 0 0 0 0 0 0 0 0 0 0 0 0
0 0 0 0 0 0 0 0 0 0 0 0 0 0 0 0 0 0 0 0 0 0 0 0 0 0 0 0 0 0 0 0 0 0 0 0 0 0 0 0 0 0 0
0 0 0 0 0 0 0 0 0 0 0 0 0 0 0 0 0 0 0 0 0 0 0 0 0 0 0 0 0 0 0 0 0 0 0 0 0 0 0 0 0 0 0
0 0 0 0 0 0 0 0 0 0 0 0 0 0 0 0 0 0 0 0 0 0 0 0 0 0 0 0 0 0 0 0 0 0 0 0 0 0 0 0 0 0 0
0 0 0 0 0 0 0 0 0 0 0 0 0 0 0 0 0 0 0 0 0 0 0 0 0 0 0 0 0 0 0 0 0 0 0 0 0 0 0 0 0 0 0
0 0 0 0 0 0 0 0 0 0 0 0 0 0 0 0 0 0 0 0 0 0 0 0 0 0 0 0 0 0 0 0 0 0 0 0 0 0 0 0 0 0 0
0 0 0 0 0 0 0 0 0 0 0 0 0 0 0 0 0 0 0 0 0 0 0 0 0 0 0 0 0 0 0 0 0 0 0 0 0 0 0 0 0 0 0
0 0 0 0 0 0 0 0 0 0 0 0 0 0 0 0 0 0 0 0 0 0 0 0 0 0 0 0 0 0 0 0 0 0 0 0 0 0 0 0 0 0 0
0 0 0 0 0 0 0 0 0 0 0 0 0 0 0 0 0 0 0 0 0 0 0 0 0 0 0 0 0 0 0 0 0 0 0 0 0 0 0 0 0 0 0
0 0 0 0 0 0 0 0 0 0 0 0 0 0 0 0 0 0 0 0 0 0 0 0 0 0 0 0 0 0 0 0 0 0 0 0 0 0 0 0 0 0 0
0 0 0 0 0 0 0 0 0 0 0 0 0 0 0 0 0 0 0 0 0 0 0 0 0 0 0 0 0 0 0 0 0 0 0 0 0 0 0 0 0 0 0
0 0 0 0 0 0 0 0 0 0 0 0 0 0 0 0 0 0 0 0 0 0 0 0 0 0 0 0 0 0 0 0 0 0 0 0 0 0 0 0 0 0 0
0 0 0 0 0 0 0 0 0 0 0 0 0 0 0 0 0 0 0 0 0 0 0 0 0 0 0 0 0 0 0 0 0 0 0 0 0 0 0 0 0 0 0
0 0 0 0 0 0 0 0 0 0 0 0 0 0 0 0 0 0 0 0 0 0 0 0 0 0 0 0 0 0 0 0 0 0 0 0 0 0 0 0 0 0 0
Wind_Speed
5 5 10 11 12 13 13 13 13 13 13 14 14 14 15 16 17 18 18 18 18 18 19 19 19 20 20 21 21 21 21 21 21 21 22 22 22 23 23 22 19 16 24
9 8 10 11 13 13 13 13 13 13 13 13 14 14 14 15 17 18 18 18 18 18 18 19 19 19 19 20 20 20 20 20 20 20 20 20 22 23 23 22 21 16 24
11 9 9 11 13 13 13 13 13 13 13 13 13 14 14 15 17 18 18 18 18 18 18 18 18 19 19 19 20 19 19 19 19 18 17 9 14 22 22 22 23 23 23
11 9 9 12 13 14 13 13 13 13 13 13 13 14 14 15 17 18 18 18 18 18 18 18 18 18 18 19 19 19 19 18 17 16 9 8 10 20 22 22 22 23 23
10 8 10 13 14 14 14 13 13 13 13 13 13 14 15 16 17 17 17 17 17 17 17 17 17 17 18 18 19 19 18 18 17 12 8 8 9 20 22 22 22 22 22
10 9 11 13 14 15 14 14 13 13 13 13 13 14 15 16 16 16 17 16 16 16 17 17 17 17 17 18 18 18 17 17 12 7 7 7 8 19 22 22 22 22 22
9 9 10 13 13 14 14 14 14 14 13 13 14 14 15 15 15 16 16 16 16 16 16 16 16 16 16 17 18 17 17 15 8 7 6 7 11 21 21 21 21 22 22
11 9 9 12 13 13 13 14 14 14 14 14 14 14 14 14 15 16 16 16 16 16 16 16 16 16 17 17 17 16 14 11 10 8 6 7 16 21 21 21 21 21 21
10 9 8 8 10 12 12 12 12 12 13 13 13 13 13 13 14 15 15 15 16 15 15 15 16 16 17 17 17 16 15 13 7 5 7 7 17 20 20 20 20 20 20
9 9 9 7 7 7 8 12 12 12 11 12 12 11 12 12 13 12 11 14 15 15 15 15 16 16 17 17 17 16 14 10 7 6 5 9 18 20 20 19 19 19 20
9 9 9 9 7 7 7 10 10 11 11 11 10 12 10 6 7 7 9 13 14 14 15 15 15 16 15 15 16 14 10 5 6 4 4 14 18 19 19 19 19 19 19
12 10 10 10 9 8 7 7 5 6 7 6 6 7 5 5 5 6 10 11 12 12 13 14 14 13 10 6 9 10 5 6 5 4 6 15 18 18 18 18 18 18 18
12 11 11 11 10 9 6 6 4 4 4 5 7 7 6 5 4 4 4 5 6 8 5 7 7 4 5 5 5 5 5 5 3 3 6 14 17 17 17 17 17 17 17
10 12 12 11 11 10 8 7 7 6 5 5 6 8 6 5 4 4 3 4 3 3 4 4 4 5 6 6 6 6 6 4 4 3 5 12 15 16 16 16 16 16 16
11 12 12 12 12 11 9 8 8 8 7 7 7 7 8 7 7 5 4 4 4 3 4 4 5 6 6 6 5 6 6 6 5 4 3 9 12 14 15 15 14 15 15
13 13 12 13 13 12 11 9 9 9 8 8 8 9 10 7 7 7 6 5 4 4 4 4 6 6 5 5 5 5 6 5 5 5 4 5 8 11 13 13 13 13 13
13 12 12 13 12 13 13 12 9 9 9 9 9 10 11 10 10 9 8 7 5 5 6 5 6 5 5 5 5 5 4 4 5 5 4 3 3 6 10 12 12 12 12
11 11 13 11 12 14 12 11 8 9 10 9 9 10 13 12 12 10 8 8 7 7 6 7 6 5 5 4 4 3 3 3 4 4 4 4 3 3 5 10 10 11 11
14 13 13 13 14 14 12 10 8 8 9 9 9 10 12 13 13 11 9 8 9 7 6 8 6 6 6 6 4 3 2 2 2 3 4 4 3 3 3 5 6 8 11
14 14 14 14 13 11 8 6 6 7 8 8 9 11 13 12 14 12 9 10 11 8 7 8 8 5 6 7 6 4 2 1 1 1 2 2 2 3 3 3 3 3 8
12 13 15 15 14 11 8 9 9 10 8 7 8 11 13 13 14 13 9 11 11 11 12 11 7 9 5 6 5 2 1 1 1 2 2 2 3 3 3 3 3 2 2
13 14 14 15 14 13 12 9 6 5 4 5 5 8 12 13 14 12 12 11 12 10 11 12 10 8 5 8 6 5 3 3 5 5 4 4 5 3 4 4 4 4 3
12 14 14 15 15 13 11 5 3 2 2 4 6 8 10 11 13 13 14 12 12 12 13 14 15 14 10 10 6 7 7 9 4 4 6 6 6 5 5 4 5 5 5
12 10 11 11 11 11 10 9 10 9 10 10 6 5 6 8 10 12 13 14 14 12 13 14 16 12 12 12 6 5 3 5 6 5 3 5 8 9 8 8 7 6 6
6 6 7 7 8 9 10 11 11 11 9 4 4 5 6 6 8 10 11 13 13 13 14 15 15 14 11 11 9 5 3 2 3 5 5 5 7 9 9 9 7 7 7
0 2 4 6 6 7 9 10 11 12 9 7 6 6 6 5 7 9 10 11 12 12 13 14 16 17 15 13 10 8 8 7 8 6 5 5 7 7 8 8 9 9 8
Wind_Direction
158 161 140 128 117 108 103 100 98 95 93 91 90 90 89 90 93 90 88 86 84 83 84 85 85 85 85 83 81 79 77 77 77 77 77 78 77 76 75 72 69 67 72
150 151 140 130 120 112 107 103 100 98 96 95 93 92 92 93 95 93 92 89 88 87 88 88 87 86 86 86 86 83 82 80 79 77 77 77 78 78 77 76 75 75 74
142 144 137 130 123 117 112 108 104 101 100 98 97 95 95 97 97 96 95 93 91 91 92 91 89 87 87 88 88 87 85 84 81 79 76 69 78 80 79 79 78 78 78
142 142 138 133 129 123 117 112 108 105 103 102 101 99 98 100 100 98 96 95 94 94 94 92 90 87 87 89 90 89 87 85 82 78 67 66 77 83 82 81 80 80 79
140 140 141 139 134 127 121 116 113 110 108 107 105 103 102 101 100 99 98 97 96 96 96 93 89 88 90 91 91 90 89 86 81 72 64 67 77 85 84 82 80 79 78
141 142 147 142 138 132 127 123 120 117 115 113 111 108 105 103 102 101 101 100 99 98 97 93 90 89 92 94 93 92 90 86 73 60 63 71 82 89 87 85 82 80 78
142 145 151 145 142 138 135 131 127 124 121 119 116 113 110 108 107 106 106 104 103 101 98 94 90 90 93 95 93 91 89 85 72 62 67 76 88 90 87 85 83 81 79
146 148 152 149 145 143 140 137 134 132 129 126 124 120 118 115 114 113 111 109 107 105 102 97 94 92 92 93 92 86 77 74 75 69 70 81 94 91 88 84 82 81 80
147 149 150 152 151 148 144 141 139 137 135 133 130 124 120 118 117 115 114 113 112 110 106 101 97 94 93 92 89 82 75 68 59 60 75 82 94 93 90 87 85 84 82
150 154 155 156 153 150 148 147 144 141 139 134 127 122 118 117 116 116 116 118 117 115 111 106 100 96 94 91 86 78 69 63 55 59 69 91 94 94 92 90 88 87 85
161 164 162 161 159 154 153 154 149 144 140 134 130 128 121 115 115 117 124 125 124 121 117 111 104 98 93 89 84 76 66 56 58 60 77 97 97 96 95 93 91 90 89
174 175 170 168 166 162 162 155 152 147 145 141 142 137 128 125 124 125 126 128 127 126 123 115 106 98 91 82 78 74 64 58 57 57 92 102 102 100 99 97 96 95 93
178 178 178 174 172 170 164 162 162 153 152 151 154 148 138 128 125 120 122 124 126 125 112 103 94 87 89 91 86 79 71 63 53 54 91 105 107 106 105 103 101 99 97
181 185 182 178 176 177 171 173 172 167 168 168 170 161 152 148 145 145 142 144 140 125 118 107 104 101 97 96 96 92 80 72 61 53 79 104 114 114 112 110 107 105 103
189 190 186 182 181 180 176 179 180 180 179 177 176 174 167 163 163 160 158 159 154 140 134 127 120 115 111 106 101 101 94 84 75 65 65 90 114 120 119 117 115 112 109
199 195 188 187 186 182 183 185 185 185 184 180 183 184 177 172 169 168 169 173 170 157 146 138 133 125 118 115 110 108 106 99 88 80 64 70 94 119 125 125 122 120 117
204 197 193 191 187 187 189 189 188 189 186 187 189 188 184 179 176 175 176 180 176 158 145 132 124 119 120 118 115 114 109 108 105 94 82 65 70 96 126 132 131 128 126
205 200 200 193 191 192 192 191 191 191 190 192 190 190 190 187 181 178 181 185 174 163 157 151 148 136 131 128 124 115 105 107 108 106 95 86 74 72 109 130 140 141 139
207 203 201 199 197 197 194 191 191 191 194 194 192 193 193 191 186 184 186 183 173 169 166 164 161 149 148 139 122 100 91 100 111 119 118 111 104 99 91 114 119 145 153
209 205 203 202 202 196 189 187 190 196 198 196 197 197 193 193 191 189 186 180 175 172 170 170 164 153 147 142 121 90 59 53 77 148 154 142 135 125 115 110 101 131 158
207 204 203 202 201 191 189 195 200 207 202 202 203 199 196 194 192 191 186 182 182 182 181 172 158 153 145 140 113 94 22 356 242 219 206 193 187 174 158 151 143 129 156
207 206 205 204 199 197 201 200 199 195 197 206 202 203 201 198 194 193 189 186 187 185 179 176 162 159 162 173 148 140 181 252 246 218 209 207 205 199 198 192 178 166 156
212 208 206 205 201 199 193 170 154 150 165 195 210 211 207 202 197 195 194 189 190 189 187 184 180 173 176 191 191 165 167 203 203 215 216 209 202 204 207 202 200 189 180
220 212 208 203 198 193 183 181 183 197 211 215 209 207 203 204 202 199 196 194 193 195 194 191 191 189 179 186 205 224 193 148 164 192 226 217 209 210 207 205 202 202 192
225 208 203 195 194 187 187 192 196 210 218 206 191 199 203 205 209 205 201 199 199 200 200 196 196 197 196 193 189 176 172 156 165 164 195 202 212 217 209 206 201 203 200
249 182 180 184 193 186 190 195 202 211 208 200 201 205 207 208 213 214 209 206 205 206 205 202 200 203 206 206 201 191 178 175 186 182 181 192 207 207 204 205 206 204 202